Location: Baia Mare
(47.6567°N, 23.5850°E)
Time: 21:22:03
(UTC+02:00)

ISS - Pass Details

Date: 23 September 2018
Orbit: 401 x 409 km, 51.6° (Epoch: 18 November)

Event Time Altitude Azimuth Distance (km) Brightness Sun altitude
Rises 21:55:59 0° 251° (WSW) 2,341 0.6 -25.6°
Reaches altitude 10° 21:58:05 10° 254° (WSW) 1,480 -0.5 -25.9°
Enters shadow 21:59:04 18° 256° (WSW) 1,082 -1.2 -26.0°
